Blue Ridge Airport

Jump to: basic info | weather | frequencies | runways | comments

Related pages: nearby airports | nearby navaids | notams | map

Basic information (top)

Codes: KMTV MTV
Location: lon 36.630699, lat -80.018303, elev 941 ft / 287 m msl
Status: small_airport

Weather (top)

Current conditions (rec'd 2014/12/20 13:55Z):

KMTV 201355Z AUTO 00000KT 10SM BKN065 BKN080 OVC085 01/M04 A3031 RMK AO2 T00061037

Airport forecast for Smith Reynolds Airport 31nm (58km) SSW (rec'd 2014/12/20 12:39Z):

TAF KINT 201134Z 2012/2112 06008KT P6SM SCT045 OVC060 
      TEMPO 2012/2016 -RA 
     FM201600 06008KT P6SM SCT025 OVC040 
     FM202200 08005KT P6SM SCT024 SCT050 
     FM210300 00000KT 5SM BR SCT008

Frequencies (top)

Verify before use: may be inaccurate or out of date.

A/D: 124.35 MHz (GREENSBORO APP/DEP)
AWOS: 118.45 MHz (AWOS 3)
CLD: 124.85 MHz (CLNC DEL)
UNIC: 122.7 MHz (CTAF/UNICOM)

Runways (top)

12/30: 5,002 x 100 ft (1,525 x 30 m) — paved — lighted

Latest comments (top)

Runway Cafe: Great little place to eat right next to ... [read]

More... (top)

See also NOTAMs and nearby airports and navaids, or visit the Blue Ridge Airport page at the main OurAirports website..